Location: Poughquag
(41.6090°N, 73.6820°W)
Time: 10:00:39
(UTC-05:00)

SR - Pass Details

Date: 10 December 2023
Orbit: 574 x 868 km, 66.7° (Epoch: 25 February)

Event Time Altitude Azimuth Distance (km) Brightness Sun altitude
Rises 10:45:59 0° 232° (SW) 3,278 ? 23.9°
Reaches altitude 10° 10:48:30 10° 240° (WSW) 2,392 ? 24.0°
Maximum altitude 10:53:41 39° 309° (NW) 1,243 ? 24.3°
Drops below altitude 10° 10:59:09 10° 18° (NNE) 2,512 ? 24.5°
Sets 11:01:51 0° 26° (NNE) 3,461 ? 24.6°
